FW2140 Weather Reports


time (UTC)temp
C
wind
direction
speed
KPH
gust
KPH
rain 1hr
cm
rain 24hr
cm
rain mn
cm
humidity
%
barometer
mb
20260507201404 18 279 6.4 16.1 0.00 0.43 0.33 30 1005.0
20260507200403 18 295 4.8 11.3 0.00 0.43 0.33 30 1005.0
20260507195404 18 285 6.4 12.9 0.00 0.43 0.33 31 1005.1
20260507194404 18 322 3.2 11.3 0.00 0.46 0.33 29 1005.0
20260507193404 18 275 4.8 11.3 0.00 0.46 0.33 27 1005.2
20260507191404 19 291 4.8 11.3 0.00 0.46 0.33 27 1005.5
20260507190404 18 265 3.2 19.3 0.00 0.46 0.33 27 1005.5
20260507185403 18 288 4.8 12.9 0.00 0.46 0.33 29 1005.4
20260507184404 18 295 4.8 11.3 0.00 0.46 0.33 26 1005.7
20260507181405 18 290 3.2 14.5 0.00 0.46 0.33 33 1005.7
20260507180405 18 282 6.4 11.3 0.00 0.46 0.33 34 1005.8
20260507175404 18 256 4.8 14.5 0.00 0.46 0.33 36 1005.9
20260507174404 17 296 4.8 11.3 0.00 0.46 0.33 36 1005.8
20260507173403 17 268 6.4 14.5 0.00 0.46 0.33 35 1006.1
20260507172404 17 299 6.4 14.5 0.00 0.46 0.33 36 1006.1
20260507171404 17 264 3.2 11.3 0.00 0.46 0.33 38 1006.0
20260507164404 17 260 3.2 9.7 0.00 0.46 0.33 46 1006.3
20260507163404 17 283 3.2 8.0 0.00 0.46 0.33 45 1006.3
20260507162404 16 267 3.2 11.3 0.00 0.46 0.33 50 1006.2
20260507161403 17 297 4.8 11.3 0.00 0.46 0.33 50 1006.5
20260507160404 17 251 1.6 9.7 0.00 0.46 0.33 50 1006.6
20260507153404 16 258 1.6 11.3 0.00 0.46 0.33 57 1006.9
20260507151403 15 252 1.6 8.0 0.00 0.46 0.33 57 1007.0
20260507150404 15 282 1.6 9.7 0.00 0.46 0.33 57 1007.4
20260507145404 16 279 1.6 4.8 0.00 0.46 0.33 54 1007.3
20260507144404 15 242 0.0 8.0 0.00 0.46 0.33 56 1007.4
20260507142404 15 290 1.6 8.0 0.00 0.46 0.33 55 1007.5
20260507141403 15 306 1.6 8.0 0.00 0.46 0.33 52 1007.5
20260507140404 14 308 3.2 9.7 0.00 0.46 0.33 57 1007.4
20260507135403 13 286 3.2 9.7 0.00 0.46 0.33 58 1007.3
20260507134404 13 313 4.8 8.0 0.00 0.46 0.33 59 1007.4
20260507133403 13 279 3.2 8.0 0.00 0.46 0.33 62 1007.5
20260507132404 13 289 3.2 8.0 0.00 0.46 0.33 68 1007.3
20260507131404 12 324 3.2 14.5 0.00 0.46 0.33 73 1007.7
20260507130404 12 261 3.2 8.0 0.00 0.46 0.33 77 1007.6
20260507125406 12 5 4.8 9.7 0.00 0.46 0.33 78 1008.0
20260507124407 11 281 3.2 8.0 0.00 0.46 0.33 81 1008.1
20260507123407 11 302 1.6 8.0 0.00 0.46 0.33 84 1007.8
20260507122406 10 318 3.2 11.3 0.00 0.46 0.33 87 1007.9
20260507121406 10 293 3.2 8.0 0.00 0.46 0.33 91 1007.8
20260507120406 9 281 1.6 4.8 0.00 0.46 0.33 94 1007.7
20260507115404 10 301 0.0 3.2 0.00 0.46 0.33 96 1007.7
20260507114403 9 296 1.6 3.2 0.00 0.46 0.33 96 1007.9
20260507113404 8 258 0.0 4.8 0.00 0.46 0.33 97 1007.6
20260507112404 9 287 0.0 0.0 0.00 0.46 0.33 98 1007.6
20260507111404 9 251 0.0 0.0 0.00 0.46 0.33 98 1007.5
20260507110404 9 252 0.0 3.2 0.00 0.46 0.33 98 1007.5
20260507105404 9 273 0.0 0.0 0.03 0.46 0.33 98 1007.4
20260507104404 9 257 0.0 0.0 0.05 0.46 0.33 98 1007.7
20260507103404 9 260 0.0 0.0 0.10 0.46 0.33 98 1007.8
20260507102404 9 249 0.0 0.0 0.13 0.46 0.33 98 1007.4
20260507101403 9 247 0.0 3.2 0.15 0.46 0.33 97 1007.4
20260507100404 9 280 0.0 3.2 0.20 0.46 0.33 97 1007.1
20260507095404 9 261 0.0 4.8 0.23 0.43 0.30 97 1006.9
20260507094404 9 263 1.6 4.8 0.20 0.41 0.28 97 1006.8
20260507093404 9 283 1.6 4.8 0.15 0.36 0.23 96 1007.1
20260507091404 10 271 1.6 4.8 0.15 0.30 0.18 96 1006.9
20260507090403 10 285 3.2 8.0 0.10 0.25 0.13 96 1007.5
20260507085404 10 279 1.6 4.8 0.05 0.20 0.08 96 1007.0
20260507084404 10 257 1.6 4.8 0.08 0.20 0.08 95 1007.1
20260507083404 10 281 3.2 4.8 0.08 0.20 0.08 95 1006.7
20260507082403 11 249 0.0 4.8 0.05 0.18 0.05 94 1007.2
20260507080404 11 305 3.2 8.0 0.03 0.15 0.03 94 1007.3
20260507075403 11 282 3.2 9.7 0.03 0.15 0.03 93 1006.8
20260507074404 12 293 3.2 9.7 0.00 0.13 0.00 91 1006.7
20260507072403 12 289 3.2 4.8 0.00 0.13 0.00 88 1005.9
20260507071404 12 271 1.6 8.0 0.00 0.13 0.00 88 1006.0
20260507070404 13 282 3.2 8.0 0.00 0.13 0.00 89 1006.2
20260507065404 13 295 1.6 9.7 0.00 0.13 0.00 89 1006.0
20260507064404 13 291 3.2 9.7 0.00 0.13 0.00 88 1006.2
20260507063404 13 275 1.6 9.7 0.00 0.13 0.00 88 1006.4
20260507062403 13 298 3.2 4.8 0.00 0.13 0.00 88 1006.3
20260507061404 13 262 1.6 9.7 0.00 0.13 0.00 88 1005.7
20260507060403 13 9 1.6 9.7 0.00 0.13 0.00 88 1006.2
20260507055404 13 289 3.2 8.0 0.00 0.13 0.00 89 1006.2
20260507054404 14 275 1.6 4.8 0.00 0.13 0.00 90 1006.4
20260507053403 14 287 3.2 4.8 0.00 0.13 0.00 91 1006.5
20260507052406 15 267 0.0 4.8 0.00 0.13 0.00 91 1006.3
20260507051404 15 287 1.6 8.0 0.00 0.13 0.00 91 1005.9
20260507050404 15 276 3.2 9.7 0.00 0.13 0.00 91 1006.1
20260507045403 15 285 3.2 9.7 0.00 0.13 0.00 93 1006.3
20260507044404 15 291 3.2 9.7 0.00 0.13 0.00 96 1006.0
20260507042403 15 274 1.6 3.2 0.00 0.13 0.00 97 1006.0
20260507041404 15 199 0.0 3.2 0.00 0.13 0.00 97 1006.2
20260507040403 15 285 1.6 3.2 0.00 0.13 0.00 97 1006.4
20260507035404 15 188 0.0 4.8 0.00 0.13 0.13 97 1006.5
20260507034404 15 272 1.6 4.8 0.00 0.13 0.13 96 1006.2
20260507033404 15 252 1.6 4.8 0.00 0.13 0.13 96 1005.9
20260507032405 15 195 3.2 8.0 0.00 0.13 0.13 95 1005.9
20260507031404 15 200 1.6 11.3 0.00 0.13 0.13 95 1005.7
20260507030404 15 279 3.2 8.0 0.00 0.13 0.13 96 1005.5
20260507025404 15 202 0.0 8.0 0.00 0.13 0.13 96 1005.8
20260507024404 15 116 1.6 4.8 0.00 0.13 0.13 96 1005.9
20260507022404 15 245 3.2 4.8 0.00 0.13 0.13 96 1005.7
20260507021404 15 256 3.2 4.8 0.00 0.13 0.13 96 1005.7
20260507015404 15 226 0.0 3.2 0.00 0.13 0.13 97 1005.9
20260507014404 15 129 1.6 8.0 0.00 0.13 0.13 97 1005.9
20260507013404 14 150 1.6 8.0 0.00 0.13 0.13 97 1005.9
20260507012404 14 178 1.6 3.2 0.00 0.13 0.13 97 1005.9
20260507011404 14 203 1.6 4.8 0.00 0.13 0.13 97 1006.1
20260507010404 14 124 0.0 9.7 0.00 0.13 0.13 97 1006.3
20260507005404 14 192 1.6 4.8 0.00 0.13 0.13 97 1006.5
20260507004404 14 214 0.0 9.7 0.03 0.13 0.13 97 1006.1
20260507003404 14 247 1.6 9.7 0.03 0.13 0.13 97 1006.2
20260507002404 14 236 1.6 9.7 0.05 0.13 0.13 97 1006.3
20260507001404 14 135 0.0 8.0 0.05 0.13 0.13 97 1006.1
20260507000405 14 241 1.6 8.0 0.05 0.13 0.13 97 1006.0
20260506235404 14 249 3.2 8.0 0.05 0.13 0.13 97 1006.3
20260506234403 14 115 1.6 8.0 0.03 0.10 0.10 97 1005.9
20260506232403 15 250 1.6 4.8 0.03 0.08 0.08 97 1005.8
20260506231404 15 146 0.0 4.8 0.03 0.08 0.08 96 1005.6
20260506230404 15 184 1.6 8.0 0.03 0.08 0.08 96 1006.0
20260506225404 15 194 1.6 3.2 0.03 0.08 0.08 96 1005.9
20260506224403 15 238 0.0 9.7 0.03 0.08 0.08 96 1006.0
20260506222403 15 244 1.6 8.0 0.03 0.05 0.05 96 1006.3
20260506221404 16 127 3.2 8.0 0.03 0.05 0.05 95 1006.4
20260506220404 16 184 1.6 4.8 0.03 0.05 0.05 95 1006.3
20260506215404 16 155 1.6 8.0 0.03 0.05 0.05 94 1006.6
20260506214404 16 263 1.6 11.3 0.03 0.05 0.05 92 1006.9
20260506213404 16 346 1.6 9.7 0.00 0.03 0.03 90 1006.8
20260506212404 16 135 1.6 9.7 0.00 0.03 0.03 88 1006.7
20260506211404 16 266 3.2 11.3 0.00 0.03 0.03 88 1006.8
20260506210404 16 151 1.6 11.3 0.00 0.03 0.03 88 1006.7
20260506205404 16 219 1.6 9.7 0.00 0.03 0.03 88 1006.9
20260506204404 17 195 4.8 9.7 0.03 0.03 0.03 87 1007.0
20260506203404 17 239 1.6 11.3 0.03 0.03 0.03 85 1006.9
20260506202404 17 275 3.2 9.7 0.03 0.03 0.03 83 1006.9